Location: Newark
(33.6333°S, 78.8500°W)
Time: 05:10:38
(UTC+00:00)

Vanguard 1 - Pass Details

Date: 29 September 2019
Orbit: 653 x 3830 km, 34.3° (Epoch: 14 October)

Event Time Altitude Azimuth Distance (km) Brightness Sun altitude
Rises 00:08:23 0° 265° (W) 3,645 15.1 -11.7°
Reaches altitude 10° 00:10:53 10° 277° (W) 2,960 13.8 -12.2°
Maximum altitude 00:17:09 30° 336° (NNW) 2,460 12.2 -13.5°
Drops below altitude 10° 00:27:14 10° 30° (NNE) 4,851 13.2 -15.5°
Enters shadow 00:31:06 - 36° (NE) 5,958 13.6 -16.3°
